Zurück zum Katalog

STARLINK-32624

AktivKommunikationVLEO
NORAD 61926·PAYLOAD·🇺🇸 United States

Gestartet Nov 11, 2024 von Cape Canaveral Space Force Station

Loading…

Nächste Überflüge (nächste 24 Stunden)

TLE

AktuellSource: CelesTrak SupGP

Epoche: Sep 15, 2026, 02:55 UTC

1 61926C 24207Q   26258.12201389  .00011480  00000+0  41576-3 0  2585
2 61926  43.0032 291.4421 0001235 277.4955 273.1094 15.27577179    19

Verfolge STARLINK-32624 in Echtzeit mit AllMySat

Download on the App Store